This is the latest recevied weather packets stored in our database for station/object AE5EW. If no packets are shown the sender has not sent any weather packets the latest 10 day(s).
| Time | Temp. | Humidity | Pressure | Rain* | Wind** | Luminosity | Snow |
|---|---|---|---|---|---|---|---|
| 1787490072 | 25° C | 87% | 1018.1 hPa | 0 mm | - | - | - |
| 1787489767 | 24.44° C | 89% | 1017.9 hPa | 0 mm | - | - | - |
| 1787489463 | 23.89° C | 92% | 1018 hPa | 0 mm | - | - | - |
| 1787489158 | 23.33° C | 96% | 1018.1 hPa | 0 mm | - | - | - |
| 1787488854 | 23.33° C | 96% | 1017.8 hPa | 0 mm | - | - | - |
| 1787488549 | 22.78° C | 96% | 1017.8 hPa | 0 mm | - | - | - |
| 1787488246 | 22.78° C | 96% | 1017.6 hPa | 0 mm | - | - | - |
| 1787487943 | 22.22° C | 97% | 1017.3 hPa | 0 mm | - | - | - |
| 1787487639 | 22.22° C | 97% | 1017.7 hPa | 0 mm | - | - | - |
| 1787487335 | 22.22° C | 97% | 1017.4 hPa | 0 mm | - | - | - |
| 1787487032 | 22.22° C | 97% | 1017.4 hPa | 0 mm | - | - | - |
| 1787486731 | 21.67° C | 97% | 1017.2 hPa | 0 mm | - | - | - |
| 1787486432 | 21.67° C | 97% | 1017.1 hPa | 0 mm | - | - | - |
| 1787486131 | 21.67° C | 97% | 1017.3 hPa | 0 mm | - | - | - |
| 1787485827 | 21.67° C | 97% | 1017.4 hPa | 0 mm | - | - | - |
| 1787485523 | 21.67° C | 97% | 1017.4 hPa | 0 mm | - | - | - |
| 1787485218 | 21.67° C | 97% | 1017.2 hPa | 0 mm | - | - | - |
| 1787484914 | 21.67° C | 97% | 1016.9 hPa | 0 mm | - | - | - |
| 1787484611 | 21.67° C | 97% | 1017.1 hPa | 0 mm | - | - | - |
| 1787484306 | 21.67° C | 97% | 1016.8 hPa | 0 mm | - | - | - |
| 1787484001 | 21.67° C | 97% | 1016.4 hPa | 0 mm | - | - | - |
| 1787483697 | 21.67° C | 97% | 1016.6 hPa | 0 mm | - | - | - |
| 1787483394 | 21.67° C | 96% | 1016.3 hPa | 0 mm | - | - | - |
| 1787483091 | 21.67° C | 96% | 1016.4 hPa | 0 mm | - | - | - |
| 1787482791 | 21.67° C | 96% | 1016.4 hPa | 0 mm | - | - | - |
* Rain latest hour (hover to see other rain measurements)
** Current wind speed in m/s (hover to see current wind gust speed)